Regional Weather Roundup
Issued by NWS

Home | Current Version | Previous Version | Text Only | Print | Product List | Glossary On
Versions: 1 2 3 4 5 6 7 8 9 10 11 12 13 14 15 16 17 18 19 20 21 22 23 24 25 26 27 28 29 30 31 32 33 34 35 36 37 38 39 40 41 42 43 44 45 46 47 48 49 50
000
ASUS43 KMPX 261110
RWRMN
WEATHER ROUNDUP FOR MINNESOTA
NATIONAL WEATHER SERVICE TWIN CITIES/CHANHASSEN MN
600 AM CDT THU MAR 26 2015


NOTE: "FAIR" INDICATES FEW OR NO CLOUDS BELOW 12,000 FEET WITH NO
SIGNIFICANT WEATHER AND/OR OBSTRUCTIONS TO VISIBILITY. N/A MEANS
CURRENT SKY AND/OR WEATHER CONDITIONS ARE NOT AVAILABLE.

MNZ060>063-068>070-261200-
   Twin Cities Metro

CITY           SKY/WX    TMP DP  RH WIND       PRES   REMARKS
TWIN CITIES    PTCLDY    28  20  71 NW15      30.07R WCI  16
ST PAUL        MOCLDY    29  20  69 NW18      30.07S WCI  16
CRYSTAL        CLEAR     28  20  71 NW14      30.06R WCI  17
BLAINE         CLOUDY    30  21  69 NW12      30.06R WCI  21
LAKEVILLE      CLEAR     23  18  80 W12       30.06S WCI  12
EDEN PRAIRIE   CLEAR     28  19  69 NW10      30.07R WCI  19
SOUTH ST PAUL  PTCLDY    30  21  68 NW15      30.06R WCI  19
LAKE ELMO      CLOUDY    32  23  69 NW13G21   30.05R WCI  22
$$
MNZ001>005-007-008-013>017-022>024-027-028-261200-
   Northwest Minnesota

CITY           SKY/WX    TMP DP  RH WIND       PRES   REMARKS
BEMIDJI        CLOUDY    24  17  75 NW10G16   30.10R WCI  13
HALLOCK        CLOUDY    21  18  86 N8        30.22R WCI  12
ROSEAU         CLEAR     19  14  79 N10       30.18R WCI   8
WARROAD        CLEAR     19  12  73 N12       30.18R WCI   7
THIEF RVR FALL CLOUDY    25  18  74 N16       30.17R WCI  12
CROOKSTON      CLOUDY    25  19  80 N9        30.20S WCI  15
FOSSTON        CLOUDY    21  18  86 NW10      30.14S WCI  10
DETROIT LAKES  CLEAR     19  18  93 NW7       30.14R WCI  10
MOORHEAD       PTCLDY    21  21 100 N7        30.20R WCI  13
PARK RAPIDS    CLOUDY    24  18  77 NW9       30.09S WCI  14
MAHNOMEN       PTSUNNY   19  16  88 NW9       30.14S WCI   9
$$
MNZ006-009>011-018-025>026-261200-
   North Central Minnesota

CITY           SKY/WX    TMP DP  RH WIND       PRES   REMARKS
BAUDETTE       CLOUDY    20  12  71 N9        30.14R WCI   9
FLAG ISLAND    CLEAR     18  10  73 N12       30.17R WCI   5
INTL FALLS     CLEAR     15   6  67 N14G21    30.13R WCI   0
WASKISH        FLURRIES  21  16  79 N10       30.13S WCI  10
BIG FORK       FLURRIES  21  16  79 N10G18    30.09R WCI  10
LONGVILLE      FLURRIES  25  19  80 N3        30.08R
GRAND RAPIDS   CLOUDY    25  16  68 N16       30.05R WCI  12
CRANE LAKE     CLOUDY    18  12  79 N7        30.10S WCI   8
ORR            FLURRIES  18  12  79 NW8G17    30.05R WCI   7
COOK           FLURRIES  19  14  79 NW5       30.07R WCI  13
WALKER         CLOUDY    25  16  69 NW9       30.09R WCI  15
$$
MNZ012-019>021-037-261200-
   Northeast Minnesota

CITY           SKY/WX    TMP DP  RH WIND       PRES   REMARKS
DULUTH         FLURRIES  23  14  68 N17G23    30.00R WCI   9
ELY            LGT SNOW  18  12  79 N9G18     30.02S WCI   6
HIBBING        FLURRIES  21  14  74 N13       30.05R WCI   9
EVELETH        MIX PCPN  21  12  68 N12G23    30.05R WCI   9
DULUTH HARBOR  CLOUDY    27  18  69 NW6G23    30.06R WCI  20
TWO HARBORS    MOCLDY    25  18  74 NW7       29.98R WCI  17
SILVER BAY     CLEAR     21  12  68 NW8G20    29.97R WCI  12
GRAND MARAIS     N/A     20   9  62 VRB6G37   29.96R WCI  12
G MARAIS ARPRT FLURRIES  12   5  73 NW22G32   29.88R WCI  -7
$$
MNZ029>031-032-039>041-046>048-054>057-064-261200-
   West Central Minnesota

CITY           SKY/WX    TMP DP  RH WIND       PRES   REMARKS
FERGUS FALLS   CLEAR     21  16  79 N7        30.19R WCI  13
WHEATON        CLEAR     21  19  93 NW8       30.19R WCI  12
MORRIS         CLEAR     25  21  86 NW10      30.14R WCI  15
ALEXANDRIA     FAIR      23  16  74 NW10      30.12S WCI  12
ELBOW LAKE     FAIR      23  19  81 N12       30.14R WCI  12
WADENA         CLEAR     18  16  93 NW8       30.10F WCI   7
GLENWOOD       CLEAR     25  19  80 NW13      30.11S WCI  13
APPLETON       CLEAR     27  23  86 NW9       30.15S WCI  17
BENSON         CLEAR     25  19  80 N8        30.13S WCI  16
ORTONVILLE     CLEAR     27  21  80 N6        30.16R WCI  20
MADISON        CLEAR     28  23  80 N10       30.15S WCI  19
WILLMAR        FAIR      25  19  80 NW7       30.13R WCI  17
$$
MNZ033>034-036-042>043-049>051-058-059-261200-
   Central Minnesota

CITY           SKY/WX    TMP DP  RH WIND       PRES   REMARKS
ST CLOUD       CLOUDY    25  19  78 NW9       30.09R WCI  15
SAUK CENTRE    FAIR      23  18  81 NW12      30.10S WCI  11
PAYNESVILLE    CLEAR     22  17  81 W8        30.11S WCI  12
AITKIN         CLOUDY    28  18  64 NW10G20   30.04R WCI  19
PINE RIVER     FLURRIES  27  19  74 NW10      30.10S WCI  17
BRAINERD       CLOUDY    27  17  66 NW12      30.07S WCI  17
STAPLES        CLOUDY    21  18  86 NW10      30.09S WCI  10
LONG PRAIRIE   FAIR      21  18  86 NW8       30.10S WCI  12
LITTLE FALLS   CLOUDY    27  19  74 NW9       30.08F WCI  17
LITCHFIELD     CLEAR     27  21  80 NW8       30.11S WCI  18
BUFFALO        CLEAR     26  19  75 NW10      30.10R WCI  16
MAPLE LAKE     CLEAR     27  21  80 NW9       30.10R WCI  17
$$
MNZ037-044-045-052-053-261200-
   East Central Minnesota

CITY           SKY/WX    TMP DP  RH WIND       PRES   REMARKS
PRINCETON      CLOUDY    30  19  64 NW7       30.08R WCI  23
MORA           CLOUDY    30  19  64 N14       30.07S WCI  20
CAMBRIDGE      CLOUDY    30  19  64 N10G20    30.05S WCI  21
RUSH CITY      CLOUDY    29  20  70 NW6       30.06S WCI  23
MOOSE LAKE     CLOUDY    28  18  64 N14       30.03R WCI  17
HINCKLEY       CLOUDY    30  21  69 NW13      30.05R WCI  20
CLOQUET        CLOUDY    25  14  63 NW17G28   30.03R WCI  11
MCGREGOR       CLOUDY    28  18  64 NW12      30.05R WCI  18
$$
MNZ071>073-080-081-089-090-097-098-261200-
   Southwest Minnesota

CITY           SKY/WX    TMP DP  RH WIND       PRES   REMARKS
MONTEVIDEO     CLEAR     27  23  86 N7        30.16R WCI  19
GRANITE FALLS  CLEAR     27  23  85 NW8       30.16R WCI  19
CANBY          MOCLDY    30  26  83 N6        30.16R WCI  24
MARSHALL       CLEAR     28  21  74 N8        30.16R WCI  20
REDWOOD FALLS  CLEAR     28  22  78 NW8       30.14R WCI  20
OLIVIA         CLEAR     27  23  86 NW5       30.13R WCI  21
PIPESTONE      CLOUDY    28  25  86 W7        30.13S WCI  21
WINDOM         CLEAR     25  21  86 CALM      30.13R
WORTHINGTON    CLEAR     21  18  86 W7        30.14S WCI  13
JACKSON        CLEAR     27  21  80 W7        30.13S WCI  19
TRACY          CLOUDY    30  25  82 NW7       30.14S WCI  23
SLAYTON        CLOUDY    28  22  78 CALM      30.13F
$$
MNZ065>067-074>077-082>085-091>093-261200-
   South Central Minnesota

CITY           SKY/WX    TMP DP  RH WIND       PRES   REMARKS
MANKATO        CLEAR     28  19  69 NW14G20   30.10S WCI  17
NEW ULM        CLEAR     28  21  74 NW14      30.11F WCI  17
ST JAMES       CLEAR     28  23  80 W9        30.14R WCI  20
FAIRMONT       CLEAR     28  18  64 W12       30.10S WCI  18
GLENCOE        CLEAR     26  21  82 NW13      30.09S WCI  15
FARIBAULT      CLEAR     27  19  74 W10       30.07R WCI  17
OWATONNA       CLEAR     25  18  74 NW14      30.06S WCI  13
WASECA         CLEAR     27  19  74 NW10      30.09S WCI  17
ALBERT LEA     CLEAR     28  23  80 NW10G16   30.07R WCI  19
$$
MNZ078>079-086>088-094>096-261200-
   Southeast Minnesota

CITY           SKY/WX    TMP DP  RH WIND       PRES   REMARKS
ROCHESTER      CLEAR     25  18  74 NW15      30.03R WCI  13
RED WING       CLOUDY    32  19  59 NW9       30.03R WCI  24
STANTON        CLEAR     24  18  78 W8        30.05R WCI  15
DODGE CENTER   CLEAR     27  21  80 NW12      30.04R WCI  16
WINONA         CLOUDY    32  21  64 W8        30.03R WCI  25
AUSTIN         CLEAR     27  19  74 NW12      30.05R WCI  16
PRESTON        CLEAR     26  19  76 NW14      30.03R WCI  14
$$
ABBREVIATIONS USED IN REMARKS
   TC - TEMPERATURES IN CELSIUS
  WCI - WIND CHILL INDEX
   HX - HEAT INDEX
  VSB - VISIBILITY
$$



USA.gov is the U.S. government's official web portal to all federal, state and local government web resources and services.